Location: Newark
(33.9035°S, 18.4112°E)
Time: 10:07:12
(UTC+00:00)

STARLINK-1073 - Pass Details

Date: 19 January 2020
Orbit: 548 x 550 km, 53.0° (Epoch: 22 February)

Event Time Altitude Azimuth Distance (km) Brightness Sun altitude
Exits shadow 01:17:20 - 62° (ENE) 1,876 6.4 -26.2°
Enters shadow 02:17:32 -69° 312° (NW) 12,468 10.4 -17.6°
Maximum altitude 02:56:08 84° 225° (SW) 565 3.6 -11.3°
